[[{"header":{"parameterUnit":"m.s-1","parameterCategory":1,"la1":30.2991,"la2":30.254,"lo1":-89.0895,"lo2":-89.0444,"dy":0.0017,"dx":0.0017,"nx":28,"ny":28,"refTime":"2024-04-21T09:00:00:Z","depth":0,"parameterNumber":2,"parameterNumberName":"U-component_of_WINDS"},"data":[0,0,0,0,0,0,0,0,0,0,0,0,0,0,0,0,0,0,0,0,0,0,0,0,0,0,0,0,0,0,0,0,0,0,0,0,0,0,0,0,0,0,0,0,0,0,0,0,0,0,0,0,0,0,0,0,0,0,-0.8974,-0.8974,0,-0.8985,-0.8985,-0.8985,-0.8968,-0.8967,-0.8967,-0.8966,-0.8977,-0.8978,-0.8979,0,0,0,0,0,0,0,0,0,0,0,0,0,-0.8937,-0.8938,-0.8974,-0.8974,-0.8974,-0.8984,-0.8985,-0.8985,-0.8968,-0.8967,-0.8967,-0.8966,-0.8977,-0.8978,-0.8979,0,0,0,0,0,0,0,0,0,0,0,0,0,-0.8951,-0.8938,-0.8974,-0.8967,-0.8966,-0.8984,-0.8985,-0.8985,-0.8968,-0.8967,-0.8966,-0.8966,-0.8977,-0.8978,-0.8979,-0.9005,0,0,-0.8983,-0.8984,0,0,0,0,0,0,0,0,-0.895,-0.8953,-0.8968,-0.8967,-0.8967,-0.8974,-0.8976,-0.8991,-0.8968,-0.8967,-0.8966,-0.8965,-0.8977,-0.8978,-0.8982,-0.9005,-0.9006,-0.8983,-0.8984,-0.8984,-0.8985,0,0,0,0,0,0,0,-0.895,-0.8952,-0.8978,-0.8968,-0.8967,-0.8963,-0.8964,-0.8979,-0.8977,-0.8967,-0.8966,-0.8968,-0.8977,-0.8981,-0.8982,-0.9006,-0.8983,-0.8984,-0.8985,-0.8986,-0.9049,-0.905,0,0,0,0,0,0,-0.8949,-0.8951,-0.8978,-0.8978,-0.8956,-0.8964,-0.8965,-0.8973,-0.8977,-0.8977,-0.8969,-0.8967,-0.8979,-0.8981,-0.8983,-0.9012,-0.8984,-0.8986,-0.8986,-0.9048,-0.9049,-0.905,0,0,0,0,0,0,-0.8949,-0.8952,-0.8977,-0.8964,-0.8967,-0.8966,-0.8974,-0.8973,-0.8978,-0.8978,-0.8977,-0.8973,-0.8979,-0.8981,-0.8999,-0.9012,-0.8986,-0.8987,-0.9047,-0.9049,-0.905,-0.9071,0,0,0,0,0,0,-0.8948,-0.8952,-0.8962,-0.8965,-0.8968,-0.8994,-0.8975,-0.8974,-0.898,-0.8978,-0.8982,-0.8982,-0.8978,-0.8997,-0.9,-0.9013,-0.8988,-0.9046,-0.9048,-0.9049,-0.9069,-0.9073,-0.9077,0,0,0,0,0,-0.8947,-0.8967,-0.8962,-0.8965,-0.898,-0.8994,-0.8996,-0.8991,-0.8981,-0.8991,-0.899,-0.8982,-0.901,-0.8999,-0.9003,-0.9016,-0.9045,-0.9047,-0.9049,-0.9068,-0.9073,-0.9077,0,0,0,0,0,0,-0.8966,-0.8968,-0.8962,-0.8985,-0.8989,-0.8992,-0.9004,-0.8997,-0.9005,-0.9003,-0.8996,-0.8997,-0.9017,-0.9018,-0.9006,-0.9041,-0.9026,-0.9029,-0.9039,-0.9043,-0.9047,-0.9046,-0.8989,0,0,0,0,0,-0.8973,-0.8984,-0.8985,-0.9005,-0.9008,-0.9005,-0.9011,-0.9007,-0.9012,-0.9014,-0.9015,-0.902,-0.903,-0.9037,-0.9046,-0.907,-0.907,-0.9081,-0.9084,-0.9087,-0.909,-0.9101,-0.9106,-0.9057,-0.9057,-0.9057,0,0,-0.8987,-0.899,-0.8997,-0.9009,-0.9012,-0.9024,-0.9007,-0.9021,-0.9029,-0.9016,-0.9033,-0.9034,-0.9039,-0.906,-0.9069,-0.9062,-0.9103,-0.909,-0.9092,-0.9093,-0.9104,-0.9109,-0.9113,-0.9059,-0.9058,-0.9058,0,0,-0.902,-0.9023,-0.9039,-0.9043,-0.9048,-0.9046,-0.905,-0.9053,-0.9053,-0.907,-0.906,-0.907,-0.9088,-0.9092,-0.9096,-0.9129,-0.9121,-0.9132,-0.915,-0.9162,-0.9166,-0.9169,-0.9181,-0.9185,-0.9134,-0.9134,-0.9134,0,-0.9037,-0.9054,-0.9049,-0.9062,-0.9067,-0.9056,-0.9072,-0.9076,-0.9084,-0.9088,-0.9079,-0.91,-0.9103,-0.9124,-0.9132,-0.9136,-0.914,-0.9131,-0.9166,-0.9169,-0.9172,-0.9183,-0.9187,-0.9136,-0.9136,-0.9135,-0.9135,0,-0.9075,-0.9087,-0.91,-0.9107,-0.9114,-0.9129,-0.9125,-0.9133,-0.9128,-0.9127,-0.9144,-0.9146,-0.9156,-0.916,-0.9156,-0.9181,-0.9176,-0.9167,-0.9152,-0.9178,-0.9188,-0.9192,-0.9138,-0.9137,-0.9137,-0.9136,0,0,-0.912,-0.9124,-0.9129,-0.9131,-0.9136,-0.9145,-0.9159,-0.9168,-0.9174,-0.918,-0.9192,-0.9206,-0.9198,-0.9203,-0.9198,-0.9209,-0.9234,-0.9198,-0.9198,-0.9204,-0.9261,-0.9267,-0.9272,-0.9228,-0.9229,-0.923,-0.926,0,-0.9152,-0.9176,-0.9171,-0.9195,-0.9206,-0.9195,-0.9207,-0.9211,-0.921,-0.9219,-0.9218,-0.9229,-0.9217,-0.9219,-0.9229,-0.9229,-0.9245,-0.9226,-0.9239,-0.9239,-0.9238,-0.9277,-0.9284,-0.9313,-0.9264,-0.9265,-0.9265,0,-0.9192,-0.9199,-0.9224,-0.9226,-0.923,-0.9241,-0.9249,-0.9258,-0.9261,-0.926,-0.9265,-0.9259,-0.9272,-0.9257,-0.9276,-0.9263,-0.9268,-0.9269,-0.927,-0.927,-0.9254,-0.9279,-0.9322,-0.9326,-0.9271,-0.9271,-0.927,0,-0.9222,-0.9237,-0.9254,-0.9257,-0.926,-0.9268,-0.927,-0.9273,-0.9278,-0.9285,-0.9288,-0.9296,-0.93,-0.9306,-0.9302,-0.9292,-0.9321,-0.9306,-0.932,-0.932,-0.9327,-0.9326,-0.9371,-0.933,-0.933,-0.933,-0.933,0,-0.9258,-0.9273,-0.9267,-0.9278,-0.9295,-0.9288,-0.9305,-0.9306,-0.9308,-0.9318,-0.9309,-0.9319,-0.9313,-0.9321,-0.9318,-0.9334,-0.9336,-0.9335,-0.9334,-0.9336,-0.9336,-0.9338,-0.9336,-0.9331,-0.9331,-0.9331,-0.9331,0,-0.9294,-0.9291,-0.9308,-0.9309,-0.931,-0.9322,-0.9323,-0.9332,-0.9331,-0.9343,-0.9346,-0.9343,-0.9353,-0.9349,-0.936,-0.9358,-0.9378,-0.9374,-0.9376,-0.9375,-0.9389,-0.9388,-0.9437,-0.9443,-0.9399,-0.9399,-0.94,0,-0.9317,-0.9328,-0.933,-0.9336,-0.9338,-0.9348,-0.9354,-0.9348,-0.9354,-0.9359,-0.9367,-0.9376,-0.9383,-0.94,-0.9399,-0.9406,-0.9403,-0.9419,-0.9404,-0.9405,-0.9402,-0.9402,-0.9403,-0.9423,-0.9423,-0.9423,-0.9424,0,-0.9357,-0.9355,-0.9363,-0.937,-0.9377,-0.9383,-0.9387,-0.9393,-0.9387,-0.9394,-0.9404,-0.9409,-0.942,-0.9429,-0.9436,-0.9437,-0.9429,-0.9429,-0.9432,-0.9434,-0.9435,-0.9434,-0.9384,-0.9428,-0.9427,-0.9427,-0.9427,-0.9427,-0.9387,-0.9397,-0.94,-0.9409,-0.9412,-0.9416,-0.9425,-0.9424,-0.9432,-0.944,-0.9436,-0.9447,-0.945,-0.9459,-0.9461,-0.947,-0.9463,-0.9469,-0.947,-0.9471,-0.9473,-0.9433,-0.9471,-0.9471,-0.9471,-0.9471,-0.9471,0,-0.9427,-0.9428,-0.9437,-0.9443,-0.945,-0.9442,-0.9447,-0.9453,-0.9463,-0.9467,-0.9474,-0.9485,-0.9493,-0.9492,-0.95,-0.9507,-0.9504,-0.9509,-0.9509,-0.9509,-0.9479,-0.9474,-0.9512,-0.9512,-0.9512,-0.9512,-0.9512,-0.9512,-0.9449,-0.9464,-0.9462,-0.9479,-0.948,-0.949,-0.9494,-0.9498,-0.95,-0.9513,-0.952,-0.9519,-0.9521,-0.9529,-0.9536,-0.9535,-0.9538,-0.9545,-0.9543,-0.9515,-0.9511,-0.9507,-0.9503,-0.9546,-0.9546,-0.9573,-0.9573,-0.9573]},{"header":{"parameterUnit":"m.s-1","parameterCategory":1,"la1":30.2991,"la2":30.254,"lo1":-89.0895,"lo2":-89.0444,"dy":0.0017,"dx":0.0017,"nx":28,"ny":28,"refTime":"2024-04-21T09:00:00:Z","depth":0,"parameterNumber":3,"parameterNumberName":"V-component_of_WINDS"},"data":[0,0,0,0,0,0,0,0,0,0,0,0,0,0,0,0,0,0,0,0,0,0,0,0,0,0,0,0,0,0,0,0,0,0,0,0,0,0,0,0,0,0,0,0,0,0,0,0,0,0,0,0,0,0,0,0,0,0,-3.5924,-3.5924,0,-3.5994,-3.5995,-3.5996,-3.5988,-3.5987,-3.5986,-3.5985,-3.6052,-3.6055,-3.6058,0,0,0,0,0,0,0,0,0,0,0,0,0,-3.5778,-3.5781,-3.5924,-3.5924,-3.5925,-3.5994,-3.5995,-3.5996,-3.5988,-3.5987,-3.5985,-3.5984,-3.6051,-3.6055,-3.6058,0,0,0,0,0,0,0,0,0,0,0,0,0,-3.5844,-3.5782,-3.5923,-3.593,-3.5931,-3.5994,-3.5995,-3.5996,-3.5988,-3.5987,-3.5985,-3.5983,-3.605,-3.6054,-3.6059,-3.6118,0,0,-3.6072,-3.6074,0,0,0,0,0,0,0,0,-3.584,-3.5849,-3.5928,-3.5929,-3.5931,-3.5981,-3.5969,-3.6037,-3.5989,-3.5966,-3.5985,-3.5983,-3.603,-3.6035,-3.6052,-3.6121,-3.6124,-3.6072,-3.6075,-3.6077,-3.6078,0,0,0,0,0,0,0,-3.5836,-3.5846,-3.5951,-3.5929,-3.5931,-3.5928,-3.5935,-3.5981,-3.6006,-3.5968,-3.5968,-3.5977,-3.603,-3.6048,-3.6054,-3.6125,-3.6072,-3.6076,-3.6078,-3.608,-3.6246,-3.6248,0,0,0,0,0,0,-3.583,-3.5842,-3.5949,-3.5953,-3.5881,-3.5932,-3.594,-3.5966,-3.6006,-3.601,-3.5978,-3.5976,-3.6042,-3.6049,-3.6056,-3.6128,-3.6076,-3.608,-3.6083,-3.6245,-3.6247,-3.6249,0,0,0,0,0,0,-3.5827,-3.584,-3.5946,-3.5898,-3.5911,-3.5936,-3.5965,-3.5969,-3.5987,-3.6013,-3.6017,-3.5992,-3.6041,-3.605,-3.6103,-3.613,-3.6082,-3.6086,-3.6242,-3.6245,-3.6248,-3.6272,0,0,0,0,0,0,-3.5823,-3.5839,-3.5862,-3.5899,-3.5914,-3.5993,-3.5967,-3.5971,-3.5994,-3.5993,-3.6027,-3.6032,-3.604,-3.6097,-3.6107,-3.6135,-3.609,-3.624,-3.6244,-3.6247,-3.6269,-3.6275,-3.6281,0,0,0,0,0,-3.5818,-3.5866,-3.5864,-3.5877,-3.5944,-3.5995,-3.6003,-3.6013,-3.5997,-3.602,-3.6037,-3.603,-3.6126,-3.6102,-3.6114,-3.6143,-3.6238,-3.6243,-3.6247,-3.6266,-3.6274,-3.6281,0,0,0,0,0,0,-3.583,-3.587,-3.5869,-3.593,-3.5959,-3.5994,-3.6023,-3.6021,-3.6055,-3.6051,-3.6061,-3.6069,-3.6122,-3.6138,-3.6111,-3.6203,-3.618,-3.6186,-3.619,-3.6198,-3.6204,-3.6198,-3.6093,0,0,0,0,0,-3.584,-3.588,-3.5912,-3.5963,-3.5978,-3.5998,-3.602,-3.6026,-3.6056,-3.6068,-3.6089,-3.6117,-3.6153,-3.6177,-3.6212,-3.6272,-3.6279,-3.6298,-3.6304,-3.6309,-3.6314,-3.6346,-3.6355,-3.6263,-3.6263,-3.6263,0,0,-3.5861,-3.5888,-3.5912,-3.5966,-3.5989,-3.6028,-3.6008,-3.605,-3.6079,-3.6074,-3.6125,-3.6142,-3.6174,-3.6231,-3.6256,-3.6245,-3.6341,-3.6314,-3.6317,-3.632,-3.6351,-3.636,-3.6368,-3.6265,-3.6265,-3.6264,0,0,-3.5919,-3.5944,-3.5988,-3.6013,-3.6049,-3.6062,-3.6073,-3.6108,-3.6119,-3.6172,-3.6168,-3.6202,-3.6264,-3.6287,-3.6307,-3.6374,-3.6369,-3.6385,-3.6416,-3.6447,-3.6454,-3.6461,-3.6484,-3.6492,-3.6391,-3.6391,-3.6391,0,-3.5939,-3.5999,-3.6011,-3.6054,-3.6078,-3.6077,-3.6121,-3.6144,-3.6189,-3.6204,-3.6192,-3.627,-3.6292,-3.6354,-3.637,-3.6387,-3.6398,-3.6381,-3.6453,-3.6459,-3.6465,-3.6487,-3.6496,-3.6392,-3.6392,-3.6392,-3.6392,0,-3.6022,-3.6064,-3.6096,-3.6141,-3.6168,-3.6212,-3.6229,-3.6255,-3.6258,-3.6272,-3.6325,-3.6351,-3.6391,-3.6407,-3.641,-3.6469,-3.6461,-3.6451,-3.6427,-3.6476,-3.6496,-3.6505,-3.6395,-3.6394,-3.6394,-3.6393,0,0,-3.6088,-3.6141,-3.6152,-3.6172,-3.6213,-3.6244,-3.6287,-3.6328,-3.635,-3.6381,-3.6416,-3.647,-3.6461,-3.6483,-3.6489,-3.6517,-3.6567,-3.6503,-3.6504,-3.6513,-3.6633,-3.6639,-3.6649,-3.6565,-3.6566,-3.6568,-3.663,0,-3.6149,-3.6227,-3.6239,-3.6307,-3.6345,-3.6345,-3.6382,-3.641,-3.6425,-3.6458,-3.6474,-3.6511,-3.6497,-3.6511,-3.6538,-3.6555,-3.6591,-3.6551,-3.6596,-3.6597,-3.6587,-3.666,-3.6667,-3.6725,-3.6638,-3.6639,-3.664,0,-3.6229,-3.6265,-3.6337,-3.6372,-3.6388,-3.6422,-3.646,-3.6493,-3.6524,-3.6533,-3.6559,-3.6561,-3.6605,-3.6581,-3.664,-3.6612,-3.6632,-3.6643,-3.6645,-3.6648,-3.6621,-3.6664,-3.6743,-3.6751,-3.6654,-3.6652,-3.6652,0,-3.6269,-3.6334,-3.6386,-3.6403,-3.6446,-3.6469,-3.6488,-3.6518,-3.6542,-3.6575,-3.659,-3.6628,-3.6648,-3.6676,-3.6688,-3.667,-3.6746,-3.6723,-3.6753,-3.6753,-3.6768,-3.6767,-3.685,-3.6783,-3.6783,-3.6783,-3.6783,0,-3.6334,-3.6378,-3.6404,-3.6435,-3.6484,-3.6498,-3.6545,-3.6563,-3.659,-3.6624,-3.6626,-3.6657,-3.6672,-3.6706,-3.6715,-3.6762,-3.6772,-3.6779,-3.6781,-3.6778,-3.6777,-3.679,-3.6785,-3.6785,-3.6785,-3.6784,-3.6784,0,-3.6386,-3.6405,-3.6461,-3.6498,-3.6508,-3.6542,-3.6572,-3.6602,-3.6618,-3.666,-3.6671,-3.6694,-3.6734,-3.675,-3.6797,-3.6804,-3.6858,-3.6857,-3.6848,-3.6848,-3.6876,-3.6873,-3.697,-3.6983,-3.6908,-3.6909,-3.691,0,-3.6425,-3.6459,-3.65,-3.6524,-3.6544,-3.6582,-3.6606,-3.6621,-3.6646,-3.6685,-3.671,-3.675,-3.6783,-3.6846,-3.6866,-3.6903,-3.6902,-3.6933,-3.6907,-3.6903,-3.6901,-3.6898,-3.6901,-3.6937,-3.6938,-3.6939,-3.6939,0,-3.6493,-3.6502,-3.6538,-3.6578,-3.6608,-3.6639,-3.667,-3.6689,-3.6708,-3.6736,-3.6778,-3.6803,-3.6853,-3.6892,-3.693,-3.6948,-3.6946,-3.6948,-3.6956,-3.6953,-3.6946,-3.6949,-3.6859,-3.6945,-3.6944,-3.6944,-3.6944,-3.6943,-3.6539,-3.6569,-3.6603,-3.6643,-3.6668,-3.6697,-3.6727,-3.6747,-3.6782,-3.6825,-3.6831,-3.6875,-3.6906,-3.6957,-3.6976,-3.701,-3.7001,-3.7014,-3.7017,-3.702,-3.7021,-3.6942,-3.7017,-3.7017,-3.7017,-3.7017,-3.7016,0,-3.6607,-3.6629,-3.6666,-3.6709,-3.6741,-3.6739,-3.6773,-3.6799,-3.6838,-3.6868,-3.69,-3.6948,-3.6986,-3.701,-3.7048,-3.707,-3.7071,-3.708,-3.7077,-3.7081,-3.7027,-3.7015,-3.7079,-3.7079,-3.7079,-3.7079,-3.7079,-3.7079,-3.6645,-3.6696,-3.6708,-3.6771,-3.6792,-3.6836,-3.6856,-3.6882,-3.6906,-3.6959,-3.6991,-3.7007,-3.7034,-3.7074,-3.7109,-3.7115,-3.7128,-3.7138,-3.7143,-3.7092,-3.7085,-3.7079,-3.7068,-3.7141,-3.7141,-3.7194,-3.7194,-3.7195]}]]